Weather Roundup
Issued by NWS Springfield, MO

Home | Current Version | Previous Version | Graphics & Text | Print | Product List | Glossary On
Versions: 1 2 3 4 5 6 7 8 9 10 11 12 13 14 15 16 17 18 19 20 21 22 23 24 25 26 27 28 29 30 31 32 33 34 35 36 37 38 39 40 41 42 43 44 45 46 47 48 49 50
000
NZUS99 KSGF 301307
HRRSGF

HOURLY WEATHER
NATIONAL WEATHER SERVICE SPRINGFIELD MO
800 AM CDT TUE AUG 30 2016

......SGF CWA......

CITY           SKY/WX    TMP DP  RH WIND       PRES   REMARKS
SPRINGFIELD    SUNNY     74  70  87 NW3       30.16R
JOPLIN         SUNNY     74  69  85 CALM      30.15S
WEST PLAINS    SUNNY     75  71  87 CALM      30.18R
ROLLA          SUNNY     77  72  84 CALM      30.16R
OSAGE BEACH    SUNNY     74  71  91 CALM      30.16S
BRANSON        MOSUNNY   72  72 100 CALM      30.17R FOG

......SURROUNDING SGF CWA......

CITY           SKY/WX    TMP DP  RH WIND       PRES   REMARKS
CHANUTE        SUNNY     74  71  91 E6        30.15R
PARSONS        SUNNY     72  70  93 CALM      30.16R
COFFEYVILLE    SUNNY     72  71  97 N3        30.14R
EMPORIA        LGT RAIN  73  72  96 CALM      30.17S FOG
GROVE OK       SUNNY     73  70  88 CALM      30.15R
ROGERS AR      SUNNY     72  70  93 CALM      30.17S
SILOAM SPRINGS SUNNY     73  63  68 E3        30.13F
HARRISON AR    SUNNY     72  70  93 CALM      30.16S
NEAR YELLVILLE SUNNY     72  68  88 CALM      30.11S

......KANSAS AND MISSOURI......

CITY           SKY/WX    TMP DP  RH WIND       PRES   REMARKS
KANSAS CTY INT PTSUNNY   71  68  90 CALM      30.15R
DOWNTOWN KC    PTSUNNY   72  69  90 CALM      30.14R
COLUMBIA       PTSUNNY   74  73  97 N6        30.16S FOG
SEDALIA        MOSUNNY   74  71  91 E7        30.17S
ST JOSEPH      MOSUNNY   69  69 100 CALM      30.16R
ST LOUIS       MOSUNNY   80  74  81 E3        30.15R
SPIRIT OF STL  SUNNY     75  74  96 CALM      30.13S FOG
KIRKSVILLE     TSTM      70  69  97 NE8       30.19F FOG
WICHITA        PTSUNNY   76  72  87 NE5       30.16R
TOPEKA         SUNNY     72  70  93 CALM      30.15R
OLATHE         PTSUNNY   69  68  96 SE5       30.16R

......TENNESSEE......

CITY           SKY/WX    TMP DP  RH WIND       PRES   REMARKS
MEMPHIS        MOSUNNY   81  74  79 NE5       30.08R
NASHVILLE      SUNNY     78  72  81 CALM      30.12R

......ARKANSAS.......

CITY           SKY/WX    TMP DP  RH WIND       PRES   REMARKS
FAYETTEVILLE   FOG       69  69 100 CALM      30.16R VSB 1/2
FT SMITH       SUNNY     75  71  87 CALM      30.10R
LITTLE ROCK    MOSUNNY   81  75  82 N5        30.08R

......OKLAHOMA.......

CITY           SKY/WX    TMP DP  RH WIND       PRES   REMARKS
TULSA          SUNNY     73  72  96 NW3       30.11R
PONCA CITY     SUNNY     71  67  87 CALM      30.14R
MCALESTER      MOSUNNY   76  70  82 CALM      30.11R
OKLAHOMA CITY  MOSUNNY   75  70  84 NW5       30.13R

......IOWA............

CITY           SKY/WX    TMP DP  RH WIND       PRES   REMARKS
DES MOINES     CLOUDY    72  70  93 NW3       30.17R FOG
QUAD CITIES    CLOUDY    71  69  93 CALM      30.15F

......ILLINOIS........

CITY           SKY/WX    TMP DP  RH WIND       PRES   REMARKS
QUINCY         MOSUNNY   73  71  93 N3        30.15R FOG
CHICAGO        LGT RAIN  71  70  96 CALM      30.15F




USA.gov is the U.S. government's official web portal to all federal, state and local government web resources and services.